• In Romania
  • List of Countries
  • For 7 days
  • Water Temperature
  • Satellite Maps
  • Weather Map
  • Weather Widgets
  • user-avatar
    Login

    Hourly Weather Solovo

    Today, 20 April, Friday

    Time Temperature Precipitation Wind Pressure Humidity
    00:00 +7°C° 0 mm 3 mps 748 mmHg 86%
    01:00 +5°C° 0 mm 3 mps 748 mmHg 88%
    02:00 +5°C° 0 mm 3 mps 748 mmHg 90%
    03:00 +4°C° 0 mm 3 mps 748 mmHg 92%
    04:00 +4°C° 0 mm 3 mps 749 mmHg 94%
    05:00 +4°C° 0 mm 3 mps 749 mmHg 96%
    06:00 +5°C° 0 mm 3 mps 749 mmHg 94%
    07:00 +5°C° 0 mm 3 mps 749 mmHg 91%
    08:00 +7°C° 0 mm 3 mps 749 mmHg 89%
    09:00 +8°C° 0 mm 3 mps 749 mmHg 84%
    10:00 +9°C° 0 mm 3 mps 749 mmHg 80%
    11:00 +9°C° 0 mm 3 mps 750 mmHg 76%
    12:00 +11°C° 0 mm 3 mps 749 mmHg 70%
    13:00 +13°C° 0 mm 2 mps 749 mmHg 65%
    14:00 +14°C° 0 mm 2 mps 749 mmHg 59%
    15:00 +14°C° 0 mm 2 mps 749 mmHg 58%
    16:00 +14°C° 0 mm 2 mps 748 mmHg 58%
    17:00 +15°C° 0 mm 2 mps 748 mmHg 57%
    18:00 +13°C° 0 mm 2 mps 747 mmHg 64%
    19:00 +10°C° 0 mm 2 mps 747 mmHg 71%
    20:00 +9°C° 0 mm 2 mps 746 mmHg 78%
    21:00 +9°C° 0 mm 2 mps 745 mmHg 78%
    22:00 +9°C° 0 mm 3 mps 745 mmHg 77%
    23:00 +9°C° 0 mm 3 mps 744 mmHg 77%

    Tomorrow, 21 April, Saturday

    Time Temperature Precipitation Wind Pressure Humidity
    00:00 +9°C° 0 mm 3 mps 743 mmHg 79%
    01:00 +8°C° 0 mm 4 mps 742 mmHg 82%
    02:00 +8°C° 0 mm 4 mps 742 mmHg 84%
    03:00 +8°C° 0 mm 4 mps 741 mmHg 87%
    04:00 +8°C° 0 mm 4 mps 739 mmHg 89%
    05:00 +8°C° 0 mm 4 mps 738 mmHg 92%
    06:00 +9°C° 0 mm 5 mps 737 mmHg 87%
    07:00 +10°C° 0 mm 5 mps 736 mmHg 83%
    08:00 +11°C° 0 mm 6 mps 735 mmHg 78%
    09:00 +13°C° 0.1 mm 6 mps 735 mmHg 79%
    10:00 +13°C° 0.1 mm 6 mps 734 mmHg 79%
    11:00 +13°C° 0.1 mm 6 mps 733 mmHg 79%
    12:00 +12°C° 0.3 mm 7 mps 733 mmHg 73%
    13:00 +12°C° 0.3 mm 8 mps 733 mmHg 66%
    14:00 +12°C° 0.3 mm 9 mps 733 mmHg 60%
    15:00 +11°C° 0 mm 8 mps 734 mmHg 60%
    16:00 +10°C° 0 mm 7 mps 734 mmHg 61%
    17:00 +9°C° 0 mm 7 mps 735 mmHg 62%
    18:00 +8°C° 0.1 mm 6 mps 735 mmHg 65%
    19:00 +8°C° 0.1 mm 6 mps 735 mmHg 68%
    20:00 +7°C° 0.1 mm 5 mps 736 mmHg 71%
    21:00 +7°C° 0 mm 5 mps 736 mmHg 72%
    22:00 +6°C° 0 mm 5 mps 736 mmHg 74%
    23:00 +6°C° 0 mm 5 mps 737 mmHg 75%

    Day after tomorrow, 22 April, Sunday

    Time Temperature Precipitation Wind Pressure Humidity
    00:00 +6°C° 0 mm 5 mps 737 mmHg 76%
    01:00 +5°C° 0 mm 5 mps 737 mmHg 76%
    02:00 +5°C° 0 mm 5 mps 737 mmHg 76%
    03:00 +5°C° 0.1 mm 5 mps 737 mmHg 78%
    04:00 +5°C° 0.1 mm 5 mps 737 mmHg 79%
    05:00 +5°C° 0.1 mm 5 mps 737 mmHg 80%
    06:00 +5°C° 0.1 mm 5 mps 738 mmHg 80%
    07:00 +5°C° 0.1 mm 5 mps 738 mmHg 79%
    08:00 +5°C° 0.1 mm 5 mps 738 mmHg 79%
    09:00 +6°C° 0.1 mm 5 mps 738 mmHg 77%
    10:00 +6°C° 0.1 mm 5 mps 739 mmHg 74%
    11:00 +6°C° 0.1 mm 5 mps 739 mmHg 72%
    12:00 +7°C° 0.2 mm 5 mps 739 mmHg 70%
    13:00 +7°C° 0.2 mm 5 mps 739 mmHg 68%
    14:00 +8°C° 0.2 mm 5 mps 739 mmHg 66%
    15:00 +7°C° 0.3 mm 4 mps 739 mmHg 68%
    16:00 +7°C° 0.3 mm 4 mps 739 mmHg 70%
    17:00 +7°C° 0.3 mm 4 mps 739 mmHg 72%
    18:00 +7°C° 0.1 mm 3 mps 740 mmHg 77%
    19:00 +5°C° 0.1 mm 2 mps 740 mmHg 82%
    20:00 +4°C° 0.1 mm 2 mps 741 mmHg 87%
    21:00 +4°C° 0 mm 2 mps 741 mmHg 88%
    22:00 +3°C° 0 mm 2 mps 741 mmHg 89%
    23:00 +4°C° 0 mm 1 mps 742 mmHg 91%

    23 April, Monday

    Time Temperature Precipitation Wind Pressure Humidity
    00:00 +3°C° 0 mm 1 mps 742 mmHg 90%
    01:00 +3°C° 0 mm 1 mps 742 mmHg 90%
    02:00 +2°C° 0 mm 1 mps 743 mmHg 90%
    03:00 +2°C° 0 mm 1 mps 743 mmHg 89%
    04:00 +1°C° 0 mm 1 mps 743 mmHg 88%
    05:00 +1°C° 0 mm 1 mps 744 mmHg 87%
    06:00 +2°C° 0 mm 1 mps 744 mmHg 78%
    07:00 +4°C° 0 mm 1 mps 744 mmHg 69%
    08:00 +6°C° 0 mm 1 mps 744 mmHg 60%
    09:00 +7°C° 0 mm 1 mps 745 mmHg 53%
    10:00 +7°C° 0 mm 2 mps 745 mmHg 47%
    11:00 +8°C° 0 mm 2 mps 745 mmHg 41%
    12:00 +9°C° 0 mm 2 mps 745 mmHg 39%
    13:00 +9°C° 0 mm 2 mps 744 mmHg 36%
    14:00 +10°C° 0 mm 2 mps 744 mmHg 34%
    15:00 +9°C° 0 mm 2 mps 744 mmHg 35%
    16:00 +9°C° 0 mm 2 mps 744 mmHg 36%
    17:00 +9°C° 0 mm 2 mps 744 mmHg 37%
    18:00 +7°C° 0 mm 2 mps 744 mmHg 44%
    19:00 +6°C° 0 mm 1 mps 744 mmHg 50%
    20:00 +5°C° 0 mm 1 mps 744 mmHg 57%
    21:00 +4°C° 0 mm 1 mps 744 mmHg 59%
    22:00 +3°C° 0 mm 1 mps 744 mmHg 62%
    23:00 +2°C° 0 mm 2 mps 743 mmHg 64%

    24 April, Tuesday

    Time Temperature Precipitation Wind Pressure Humidity
    00:00 +1°C° 0 mm 2 mps 743 mmHg 66%
    01:00 +1°C° 0 mm 2 mps 743 mmHg 68%
    02:00 -1°C° 0 mm 2 mps 743 mmHg 70%
    03:00 -1°C° 0 mm 2 mps 743 mmHg 71%
    04:00 -1°C° 0 mm 2 mps 743 mmHg 71%
    05:00 -1°C° 0 mm 2 mps 742 mmHg 72%
    06:00 +1°C° 0 mm 3 mps 742 mmHg 67%
    07:00 +3°C° 0 mm 3 mps 742 mmHg 62%
    08:00 +4°C° 0 mm 3 mps 741 mmHg 57%
    09:00 +6°C° 0 mm 4 mps 741 mmHg 53%
    10:00 +7°C° 0 mm 4 mps 741 mmHg 49%
    11:00 +10°C° 0 mm 4 mps 741 mmHg 45%
    12:00 +10°C° 0 mm 4 mps 740 mmHg 45%
    13:00 +11°C° 0 mm 4 mps 740 mmHg 45%
    14:00 +11°C° 0 mm 4 mps 740 mmHg 44%
    15:00 +10°C° 0.1 mm 4 mps 739 mmHg 50%
    16:00 +9°C° 0.1 mm 3 mps 739 mmHg 56%
    17:00 +9°C° 0.1 mm 3 mps 739 mmHg 62%
    18:00 +8°C° 0.2 mm 3 mps 739 mmHg 68%
    19:00 +7°C° 0.2 mm 3 mps 739 mmHg 73%
    20:00 +5°C° 0.2 mm 3 mps 738 mmHg 79%
    21:00 +5°C° 0.1 mm 3 mps 738 mmHg 82%
    22:00 +5°C° 0.1 mm 3 mps 738 mmHg 84%
    23:00 +5°C° 0.1 mm 3 mps 738 mmHg 87%

    25 April, Wednesday

    Time Temperature Precipitation Wind Pressure Humidity
    00:00 +6°C° 0.1 mm 2 mps 738 mmHg 89%
    01:00 +6°C° 0.1 mm 2 mps 738 mmHg 90%
    02:00 +6°C° 0.1 mm 2 mps 738 mmHg 92%
    03:00 +6°C° 0.1 mm 2 mps 738 mmHg 92%
    04:00 +6°C° 0.1 mm 2 mps 738 mmHg 93%
    05:00 +5°C° 0.1 mm 2 mps 738 mmHg 93%
    06:00 +6°C° 0.1 mm 2 mps 739 mmHg 91%
    07:00 +6°C° 0.1 mm 2 mps 739 mmHg 89%
    08:00 +7°C° 0.1 mm 3 mps 739 mmHg 87%
    09:00 +7°C° 0 mm 3 mps 739 mmHg 84%
    10:00 +8°C° 0 mm 3 mps 739 mmHg 80%
    11:00 +8°C° 0 mm 3 mps 739 mmHg 77%
    12:00 +9°C° 0 mm 3 mps 739 mmHg 72%
    13:00 +10°C° 0 mm 3 mps 739 mmHg 67%
    14:00 +11°C° 0 mm 3 mps 739 mmHg 62%
    15:00 +11°C° 0 mm 3 mps 738 mmHg 62%
    16:00 +11°C° 0 mm 3 mps 738 mmHg 61%
    17:00 +11°C° 0 mm 3 mps 737 mmHg 61%
    18:00 +11°C° 0.2 mm 4 mps 737 mmHg 67%
    19:00 +10°C° 0.2 mm 4 mps 736 mmHg 74%
    20:00 +8°C° 0.2 mm 4 mps 736 mmHg 80%
    21:00 +8°C° 1 mm 4 mps 735 mmHg 84%
    22:00 +8°C° 1 mm 5 mps 734 mmHg 87%
    23:00 +8°C° 1 mm 5 mps 734 mmHg 91%
    Show more